sat.trackr.live / text

‹ back to catalog

STARLINK-31062

NORAD 58590 · 2023-200B

PAYLOAD ACTIVE UNKNOWN

§ Identity

Operator
Country
US
Launch date
2023-12-19
Launch site
AFETR
Launch vehicle
Mass (kg)
RCS (m²)

Purposes: comms

External: N2YO · Heavens-Above · Gunter

§ Orbital elements

Epoch: 2026-05-24T22:33:50.713056Z

Period
94.27 min
Inclination
43.0031°
Eccentricity
0.0001348
Mean motion
15.27564929 rev/d
Perigee alt
482.2 km
Apogee alt
484.0 km
Semi-major
6,861.2 km
B*
-4.7382e-5
RAAN
101.5246°
Arg perigee
226.6438°
Mean anomaly
133.4301°
Rev number
13,523

§ Raw data

STARLINK-310621 58590U 23200B   26144.94017029 -.00001565  00000+0 -47382-4 0  99992 58590  43.0031 101.5246 0001348 226.6438 133.4301 15.27564929135235

JSON: /api/v1/satellites/58590 · /tle

For live sub-satellite position, see the globe view (requires WebGL).

§ Visibility from observer

Set your observer location to see the next 7 days of passes ≥ 10°. The values pass through the URL so the page stays shareable.

No JS? Fill the form by hand. The geolocation button needs JavaScript.